Valdosta, GA

6:32 PM EST on February 08, 2016 (GMT -0500)
Moody Air Force Base

Weather History for KVAD - December, 2012

Change the Weather History Date:

Saturday, December 29, 2012

  Actual Average Record
Temperature  
Mean Temperature 51 °F -  
Max Temperature 61 °F 59 °F 77 °F (2007)
Min Temperature 41 °F 39 °F 25 °F (2010)
Degree Days  
Heating Degree Days 14    
Growing Degree Days 1 (Base 50)    
Moisture  
Dew Point 52 °F    
Average Humidity 89    
Maximum Humidity 100    
Minimum Humidity 63    
Precipitation  
Precipitation 0.33 in - - ()
Sea Level Pressure  
Sea Level Pressure 29.87 in    
Wind  
Wind Speed 9 mph (WSW)    
Max Wind Speed 18 mph    
Max Gust Speed 26 mph    
Visibility 9 miles    
Events Rain    
Averages and records for this station are not official NWS values.
T = Trace of Precipitation, MM = Missing Value Source: NWS Daily Summary

Daily Weather History Graph

Daily Weather History Graph

Search for Another Location

Airport or City:

Trip Planner

Search our weather history database for the weather conditions in past years. The results will help you decide how hot, cold, wet, or windy it might be!

Date:

Astronomy

Dec. 29, 2012 Rise Set
Actual Time 7:30 AM EST 5:40 PM EST
Civil Twilight 7:03 AM EST 6:06 PM EST
Nautical Twilight 6:33 AM EST 6:36 PM EST
Astronomical Twilight 6:03 AM EST 7:06 PM EST
Moon 7:05 PM EST (12/29) 8:08 AM EST (12/29)
Length of Visible Light 11h 03m
Length of Day
10h 09m
Full, 98% of the Moon is Illuminated
Dec 29
Full
Jan 4
Last Quarter
Jan 11
New
Jan 18
First Quarter
Jan 26
Full

Hourly Weather History & Observations

Time (EST) Temp. Windchill Dew Point Humidity Pressure Visibility Wind Dir Wind Speed Gust Speed Precip Events Conditions
12:49 AM 53.6 °F - 46.4 °F 77% 29.82 in 10.0 mi SE 8.1 mph - N/A   Overcast
12:55 AM 53.4 °F - 47.1 °F 79% 29.80 in 10.0 mi ESE 9.2 mph - N/A   Overcast
1:55 AM 54.9 °F - 49.1 °F 81% 29.78 in 10.0 mi SSE 6.9 mph - N/A   Overcast
1:58 AM 55.4 °F - 50.0 °F 82% 29.78 in 10.0 mi SSE 6.9 mph - N/A   Overcast
2:00 AM 55.4 °F - 50.0 °F 82% 29.78 in 10.0 mi SSE 8.1 mph - N/A Rain Light Rain
2:03 AM 55.4 °F - 50.0 °F 82% 29.78 in 10.0 mi SSE 9.2 mph - N/A Rain Light Rain
2:24 AM 55.4 °F - 53.6 °F 94% 29.77 in 10.0 mi SSE 9.2 mph - N/A Rain Light Rain
2:35 AM 55.4 °F - 53.6 °F 94% 29.77 in 5.0 mi South 5.8 mph - N/A Rain Rain
2:42 AM 55.4 °F - 55.4 °F 100% 29.77 in 5.0 mi South 3.5 mph - N/A Rain Rain
2:44 AM 55.4 °F - 55.4 °F 100% 29.77 in 5.0 mi Calm Calm - N/A Rain Rain
2:48 AM 55.4 °F - 55.4 °F 100% 29.76 in 5.0 mi West 3.5 mph - N/A Rain Rain
2:55 AM 55.2 °F - 54.9 °F 99% 29.76 in 5.0 mi SSW 5.8 mph - 0.12 in Rain Light Rain
3:00 AM 55.4 °F - 55.4 °F 100% 29.77 in 4.0 mi South 6.9 mph - N/A Rain Light Rain
3:11 AM 55.4 °F - 55.4 °F 100% 29.76 in 4.0 mi South 8.1 mph - N/A Rain Light Rain
3:15 AM 55.4 °F - 55.4 °F 100% 29.76 in 4.0 mi South 5.8 mph - N/A Rain Light Rain
3:16 AM 55.4 °F - 55.4 °F 100% 29.76 in 4.0 mi South 5.8 mph - N/A Rain Light Rain
3:20 AM 55.4 °F - 55.4 °F 100% 29.75 in 5.0 mi South 6.9 mph - N/A Rain Light Rain
3:55 AM 57.4 °F - 57.4 °F 100% 29.75 in 10.0 mi South 6.9 mph - 0.16 in Rain Light Rain
3:58 AM 57.2 °F - 57.2 °F 100% 29.75 in 10.0 mi South 8.1 mph - N/A   Overcast
3:59 AM 57.2 °F - 57.2 °F 100% 29.75 in 10.0 mi South 8.1 mph - N/A Rain Light Rain
4:07 AM 59.0 °F - 59.0 °F 100% 29.75 in 10.0 mi South 9.2 mph - N/A Rain Light Rain
4:13 AM 59.0 °F - 59.0 °F 100% 29.75 in 10.0 mi South 9.2 mph - N/A Rain Light Rain
4:16 AM 59.0 °F - 59.0 °F 100% 29.75 in 10.0 mi SSW 8.1 mph - N/A Rain Light Rain
4:20 AM 59.0 °F - 59.0 °F 100% 29.75 in 9.0 mi SSW 5.8 mph - N/A Rain Light Rain
4:23 AM 59.0 °F - 59.0 °F 100% 29.75 in 8.0 mi SW 5.8 mph - N/A Rain Light Rain
4:25 AM 59.0 °F - 59.0 °F 100% 29.75 in 8.0 mi SW 6.9 mph - N/A Rain Light Rain
4:27 AM 59.0 °F - 59.0 °F 100% 29.76 in 8.0 mi SW 6.9 mph - N/A Rain Light Rain
4:28 AM 59.0 °F - 59.0 °F 100% 29.76 in 8.0 mi WSW 6.9 mph - N/A Rain Light Rain
4:34 AM 60.8 °F - 60.8 °F 100% 29.76 in 5.0 mi SW 6.9 mph - N/A Rain Light Rain
4:40 AM 60.8 °F - 60.8 °F 100% 29.75 in 3.0 mi SSW 8.1 mph - N/A Rain Rain
4:41 AM 60.8 °F - 60.8 °F 100% 29.75 in 3.0 mi SSW 6.9 mph - N/A Rain Light Rain
4:46 AM 60.8 °F - 60.8 °F 100% 29.76 in 5.0 mi SSW 9.2 mph - N/A Rain Light Rain
4:48 AM 60.8 °F - 60.8 °F 100% 29.76 in 7.0 mi SSW 9.2 mph - N/A Rain Light Rain
4:49 AM 60.8 °F - 60.8 °F 100% 29.76 in 8.0 mi SSW 9.2 mph - N/A Rain Light Rain
4:55 AM 61.2 °F - 61.2 °F 100% 29.76 in 10.0 mi SSW 9.2 mph - 0.05 in Rain Light Rain
5:18 AM 60.8 °F - 60.8 °F 100% 29.77 in 10.0 mi West 10.4 mph - N/A   Overcast
5:41 AM 59.0 °F - 59.0 °F 100% 29.78 in 10.0 mi West 8.1 mph - N/A   Overcast
5:42 AM 59.0 °F - 59.0 °F 100% 29.78 in 10.0 mi West 8.1 mph - N/A   Overcast
5:55 AM 58.8 °F - 58.8 °F 100% 29.78 in 10.0 mi West 4.6 mph - 0.00 in   Overcast
6:06 AM 59.0 °F - 59.0 °F 100% 29.79 in 10.0 mi WSW 5.8 mph - N/A   Overcast
6:11 AM 59.0 °F - 59.0 °F 100% 29.80 in 10.0 mi WSW 5.8 mph - N/A   Overcast
6:13 AM 59.0 °F - 59.0 °F 100% 29.80 in 10.0 mi WSW 5.8 mph - N/A   Overcast
6:27 AM 59.0 °F - 59.0 °F 100% 29.82 in 10.0 mi West 5.8 mph - N/A   Overcast
6:37 AM 59.0 °F - 59.0 °F 100% 29.82 in 10.0 mi West 9.2 mph - N/A   Overcast
6:38 AM 59.0 °F - 59.0 °F 100% 29.82 in 10.0 mi West 8.1 mph - N/A   Overcast
6:40 AM 59.0 °F - 59.0 °F 100% 29.82 in 10.0 mi West 11.5 mph - N/A   Overcast
6:41 AM 59.0 °F - 59.0 °F 100% 29.82 in 10.0 mi West 12.7 mph - N/A   Overcast
6:42 AM 59.0 °F - 59.0 °F 100% 29.83 in 10.0 mi West 11.5 mph - N/A   Overcast
6:43 AM 59.0 °F - 59.0 °F 100% 29.83 in 10.0 mi West 11.5 mph - N/A   Overcast
6:55 AM 59.0 °F - 58.6 °F 99% 29.84 in 10.0 mi West 12.7 mph - N/A   Overcast
7:05 AM 59.0 °F - 59.0 °F 100% 29.85 in 10.0 mi WNW 15.0 mph - N/A   Overcast
7:55 AM 56.5 °F - 55.8 °F 97% 29.89 in 10.0 mi WNW 16.1 mph 26.5 mph N/A   Overcast
8:07 AM 55.4 °F - 55.4 °F 100% 29.91 in 10.0 mi WNW 18.4 mph 25.3 mph N/A   Overcast
8:30 AM 55.4 °F - 53.6 °F 94% 29.92 in 10.0 mi WNW 9.2 mph - N/A   Overcast
8:41 AM 53.6 °F - 53.6 °F 100% 29.93 in 10.0 mi WNW 15.0 mph - N/A   Overcast
8:55 AM 54.1 °F - 52.0 °F 92% 29.94 in 10.0 mi West 12.7 mph - N/A   Overcast
9:03 AM 53.6 °F - 51.8 °F 94% 29.94 in 10.0 mi West 13.8 mph - N/A   Overcast
9:19 AM 53.6 °F - 51.8 °F 94% 29.95 in 10.0 mi WNW 13.8 mph 26.5 mph N/A   Overcast
9:55 AM 52.9 °F - 49.3 °F 88% 29.97 in 10.0 mi WNW 9.2 mph - N/A   Overcast
9:58 AM 53.6 °F - 50.0 °F 88% 29.98 in 10.0 mi NW 12.7 mph - N/A   Overcast
10:01 AM 53.6 °F - 50.0 °F 88% 29.98 in 10.0 mi NW 16.1 mph 19.6 mph N/A   Overcast
10:10 AM 51.8 °F - 48.2 °F 88% 29.99 in 10.0 mi NW 12.7 mph - N/A   Overcast
10:22 AM 53.6 °F - 48.2 °F 82% 29.99 in 10.0 mi WNW 9.2 mph - N/A   Overcast
10:24 AM 53.6 °F - 46.4 °F 77% 29.99 in 10.0 mi WNW 12.7 mph - N/A   Overcast
10:26 AM 53.6 °F - 46.4 °F 77% 29.99 in 10.0 mi WNW 13.8 mph - N/A   Overcast
10:55 AM 52.5 °F - 46.6 °F 80% 30.00 in 10.0 mi WNW 13.8 mph - N/A   Overcast
11:55 AM 53.8 °F - 44.8 °F 72% 30.00 in 10.0 mi WNW 12.7 mph - N/A   Overcast
12:55 PM 53.1 °F - 43.0 °F 69% 29.98 in 10.0 mi WNW 8.1 mph - N/A   Overcast
1:54 PM 53.6 °F - 42.8 °F 67% 29.97 in 10.0 mi West 16.1 mph - N/A   Mostly Cloudy
1:55 PM 54.5 °F - 43.0 °F 65% 29.97 in 10.0 mi West 13.8 mph - N/A   Mostly Cloudy
1:56 PM 53.6 °F - 42.8 °F 67% 29.97 in 10.0 mi West 13.8 mph - N/A   Mostly Cloudy
2:11 PM 55.4 °F - 42.8 °F 63% 29.97 in 10.0 mi West 12.7 mph 19.6 mph N/A   Mostly Cloudy
3:55 PM 51.3 °F - 39.4 °F 64% 30.01 in 10.0 mi NW 16.1 mph - N/A   Partly Cloudy
4:09 PM 50.0 °F - 39.2 °F 66% 30.02 in 10.0 mi WNW 13.8 mph - N/A   Mostly Cloudy
4:25 PM 50.0 °F - 39.2 °F 66% 30.02 in 10.0 mi WNW 17.3 mph 21.9 mph N/A   Scattered Clouds
4:55 PM 49.1 °F - 38.3 °F 66% 30.04 in 10.0 mi WNW 13.8 mph - N/A   Scattered Clouds
4:56 PM 48.2 °F - 39.2 °F 71% 30.04 in 10.0 mi WNW 11.5 mph - N/A   Mostly Cloudy
6:55 PM 43.9 °F 36.8 °F 33.8 °F 68% 30.12 in 10.0 mi WNW 15.0 mph 21.9 mph N/A   Overcast
7:51 PM 44.6 °F 38.4 °F 33.8 °F 66% 30.13 in 10.0 mi WNW 12.7 mph - N/A   Overcast
7:55 PM 43.7 °F 36.3 °F 32.5 °F 65% 30.14 in 10.0 mi WNW 16.1 mph 20.7 mph N/A   Overcast
8:55 PM 43.5 °F 36.1 °F 32.2 °F 64% 30.17 in 10.0 mi NW 16.1 mph 21.9 mph N/A   Overcast
9:55 PM 42.3 °F 34.4 °F 30.7 °F 64% 30.19 in 10.0 mi NW 16.1 mph - N/A   Overcast
10:55 PM 41.5 °F 34.6 °F 30.0 °F 64% 30.22 in 10.0 mi NW 12.7 mph - N/A   Overcast
11:55 PM 41.0 °F 33.9 °F 29.7 °F 64% 30.23 in 10.0 mi NW 12.7 mph 20.7 mph N/A   Overcast